Flag for Germany Weather past 2 weeks in Bad Oldesloe, Schleswig-Holstein, Germany

Now
57 °F

Scattered showers. Passing clouds.


Feels Like: 56 °F
Forecast: 47 / 67 °F
Wind: 6 mph from West

Location: Luebeck-Blankensee

Current Time: Aug 20, 2014 at 8:58:09 PM

Latest Report: Aug 20, 2014 at 8:20 PM


Visibility: N/A

Pressure: 29.92 "Hg

Humidity: 77%

Dew point: 50 °F

Location of Bad OldesloeLocation

Historic Weather in Bad Oldesloe — Graph

°F

Bad Oldesloe temperature yesterday

Maximum temperature yesterday: 64 °F (at 3:20 PM)
Minimum temperature yesterday: 52 °F (at 6:50 AM)
Average temperature yesterday: 58 °F

Past Weeks' High & Low Weather Summary

 TemperatureHumidityPressure
High81 °F (Aug 8, 4:20 PM)100% (Aug 8, 6:50 AM)30.07 "Hg (Aug 8, 6:50 AM)
Low52 °F (Aug 19, 6:50 AM)30% (Aug 6, 4:20 PM)29.47 "Hg (Aug 18, 12:20 PM)
Average64 °F70%29.80 "Hg
* Reported Aug 5 7:20 PM — Aug 20 7:50 PM, Bad Oldesloe, Weather by CustomWeather, © 2014

Note: Actual official high and low records may vary slightly from our data, if they occured in-between our weather recording intervals... More about our weather records

Advertising

Bad Oldesloe weather history for previous 24 hours

 ConditionsComfort  
Time TempWeatherWind HumidityBarometerVisibility
7:50 PM
Aug 20
57 °FScattered showers. Scattered clouds.12 mph77%29.92 "HgN/A
7:20 PM59 °FScattered showers. Scattered clouds.14 mph72%29.92 "HgN/A
6:50 PM59 °FScattered clouds.12 mph72%29.89 "HgN/A
6:20 PM59 °FScattered showers. Scattered clouds.14 mph72%29.89 "HgN/A
5:50 PM61 °FScattered showers. Partly sunny.15 mph63%29.89 "HgN/A
5:20 PM61 °FScattered showers. Scattered clouds.15 mph63%29.89 "HgN/A
4:50 PM59 °FScattered showers. Scattered clouds.15 mph68%29.89 "HgN/A
4:20 PM63 °FScattered showers. Scattered clouds.15 mph68%29.89 "HgN/A
3:50 PM63 °FScattered showers. Scattered clouds.17 mph64%29.89 "HgN/A
3:20 PM61 °FScattered clouds.16 mph68%29.89 "HgN/A
2:50 PM61 °FScattered showers. Scattered clouds.16 mph68%29.89 "HgN/A
2:20 PM63 °FScattered showers. Scattered clouds.16 mph64%29.86 "HgN/A
1:50 PM59 °FScattered clouds.7 mph82%29.86 "HgN/A
1:20 PM55 °FSleet. Scattered clouds.8 mph88%29.89 "HgN/A
1:03 PM57 °FRain showers. Scattered clouds.14 mph67%29.89 "Hg4 mi
12:50 PM61 °FScattered clouds.16 mph68%29.86 "HgN/A
12:20 PM63 °FBroken clouds.14 mph64%29.86 "HgN/A
11:50 AM59 °FBroken clouds.14 mph72%29.86 "HgN/A
11:20 AM61 °FBroken clouds.18 mph68%29.83 "HgN/A
10:50 AM59 °FScattered clouds.16 mph72%29.83 "HgN/A
10:20 AM57 °FBroken clouds.18 mph77%29.83 "HgN/A
9:50 AM57 °FPassing clouds.16 mph77%29.83 "HgN/A
9:20 AM55 °FScattered clouds.17 mph82%29.83 "HgN/A
8:50 AM54 °FPartly sunny.15 mph88%29.83 "HgN/A
8:20 AM54 °FScattered clouds.14 mph88%29.80 "HgN/A
7:50 AM52 °FScattered clouds.14 mph88%29.80 "HgN/A
7:20 AM52 °FLight rain. Broken clouds.13 mph88%29.80 "HgN/A
6:50 AM52 °FPassing clouds.13 mph88%29.80 "HgN/A
10:50 PM
Aug 19
52 °FPartly cloudy.12 mph94%29.74 "HgN/A
10:20 PM52 °FPartly cloudy.9 mph94%29.74 "HgN/A
9:50 PM52 °FPassing clouds.8 mph94%29.74 "HgN/A
9:20 PM52 °FScattered clouds.7 mph94%29.74 "HgN/A
8:50 PM52 °FPartly sunny.9 mph88%29.74 "HgN/A
8:20 PM55 °FBroken clouds.10 mph82%29.71 "HgN/A
Weather by CustomWeather, © 2014

See weather overviewHow to use our weather pages